OK2MD-6 Weather Reports


time (UTC)temp
F
wind
direction
speed
knots
gust
knots
rain 1hr
in
rain 24hr
in
rain mn
in
humidity
%
barometer
mb
20260505040004 45 0 0.0 0.0 0.00 0.00 0.00 84 1009.4
20260505034003 45 182 0.0 0.9 0.00 0.00 0.00 84 1009.4
20260505032003 46 0 0.0 0.0 0.00 0.00 0.00 83 1009.5
20260505030005 46 182 0.0 0.9 0.00 0.00 0.00 83 1009.7
20260505024003 46 0 0.0 0.0 0.00 0.00 0.00 84 1009.9
20260505022024 46 0 0.0 0.0 0.00 0.00 0.00 82 1009.9
20260505020005 47 0 0.0 0.0 0.00 0.00 0.00 82 1009.9
20260505014024 47 182 0.0 0.9 0.00 0.00 0.00 81 1010.1
20260505012003 48 182 0.0 0.9 0.00 0.00 0.00 80 1010.0
20260505010024 48 0 0.0 0.0 0.00 0.00 0.00 79 1010.2
20260505004003 49 0 0.0 0.0 0.00 0.00 0.00 78 1010.3
20260505002003 50 182 0.0 0.9 0.00 0.00 0.00 76 1010.5
20260505000003 51 182 0.0 0.9 0.00 0.00 0.00 74 1010.7
20260504234003 51 0 0.0 0.0 0.00 0.00 0.00 74 1010.9
20260504232005 52 182 0.0 1.7 0.00 0.00 0.00 73 1011.1
20260504230005 52 182 0.0 1.7 0.00 0.00 0.00 72 1011.1
20260504224003 53 182 0.0 1.7 0.00 0.00 0.00 72 1011.4
20260504222003 53 182 0.0 0.9 0.00 0.00 0.00 72 1011.5
20260504220004 53 182 0.0 1.7 0.00 0.00 0.00 72 1011.6
20260504214003 54 0 0.0 0.0 0.00 0.00 0.00 72 1011.8
20260504212003 54 0 0.0 0.0 0.00 0.00 0.00 71 1011.9
20260504210005 55 0 0.0 0.0 0.00 0.00 0.00 70 1012.0
20260504204003 56 182 0.0 0.9 0.00 0.00 0.00 70 1012.2
20260504202003 56 0 0.0 0.0 0.00 0.00 0.00 69 1012.2
20260504200004 57 182 0.0 0.9 0.00 0.00 0.00 68 1012.4
20260504194003 58 0 0.0 0.0 0.00 0.00 0.00 67 1012.3
20260504192005 60 0 0.0 0.0 0.00 0.00 0.00 66 1012.3
20260504190003 61 0 0.0 0.0 0.00 0.00 0.00 63 1012.4
20260504184003 64 182 0.0 0.9 0.00 0.00 0.00 58 1012.3
20260504182003 67 0 0.0 0.0 0.00 0.00 0.00 53 1012.2
20260504180004 69 0 0.0 0.0 0.00 0.00 0.00 48 1012.0
20260504174005 71 182 0.0 1.7 0.00 0.00 0.00 47 1012.0
20260504172004 72 182 0.0 1.7 0.00 0.00 0.00 44 1012.1
20260504050003 49 170 0.0 0.9 0.00 0.00 0.00 82 1014.6